Stations météo

Publicité
Strasbourg, France (7190): Température de l'air & dewpoint: 25.10.2020 23:00:00 - 31.10.2020 23:00:00 (CET)Strasbourg, France (7190): Température de l'air 5cm: 25.10.2020 23:00:00 - 31.10.2020 23:00:00 (CET)Strasbourg, France (7190): Température de l'air -20cm & Température de l'air -100cm: 25.10.2020 23:00:00 - 31.10.2020 23:00:00 (CET)Strasbourg, France (7190): Vitesse du vent & gusts: 25.10.2020 23:00:00 - 31.10.2020 23:00:00 (CET)Strasbourg, France (7190): Direction du vent: 25.10.2020 23:00:00 - 31.10.2020 23:00:00 (CET)Strasbourg, France (7190): reduced air pressure: 25.10.2020 23:00:00 - 31.10.2020 23:00:00 (CET)Strasbourg, France (7190): visibility: 25.10.2020 23:00:00 - 31.10.2020 23:00:00 (CET)Strasbourg, France (7190): Ensoleillement: 25.10.2020 23:00:00 - 31.10.2020 23:00:00 (CET)Strasbourg, France (7190): Quantités de précipitations: 25.10.2020 23:00:00 - 31.10.2020 23:00:00 (CET)
Date & Time tt [°C] td [°C] tt 5cm [°C] tt -20cm [°C] tt -100cm [°C] ff [km/h] ff [knt] fx [km/h] fx [knt] dd ppp [hPa] vv [km] sd [min] rr [mm]
31.10.2020 23:00:00 8,1 6,9 7,0 12,2 14,1 4 2 10 5 S 1020,6 16 0 0,0
31.10.2020 22:00:00 8,5 7,3 6,0 12,3 14,1 3 1 12 7 SSW 1020,5 12 0 0,0
31.10.2020 21:00:00 9,2 8,0 6,5 12,4 14,1 5 3 12 7 SW 1020,4 17 0 0,0
31.10.2020 20:00:00 9,2 6,8 6,5 12,6 14,1 10 5 14 7 WSW 1020,9 19 0 0,0
31.10.2020 19:00:00 8,7 6,7 5,8 12,6 14,1 8 5 11 6 SSE 1020,3 17 0 0,0
31.10.2020 18:00:00 9,8 7,2 7,6 12,6 14,1 6 3 9 5 SE 1020,7 32 0 0,0
31.10.2020 17:00:00 12,8 8,3 10,4 12,4 14,1 5 3 11 6 SE 1020,3 42 45 0,0
31.10.2020 16:00:00 16,3 9,9 18,7 12,2 14,0 7 4 22 12 S 1020,2 42 60 0,0
31.10.2020 15:00:00 16,5 10,1 20,5 12,0 14,1 11 6 25 13 S 1020,4 38 60 0,0
31.10.2020 14:00:00 16,0 9,6 19,6 11,7 14,1 14 7 23 13 S 1020,9 41 60 0,0
31.10.2020 13:00:00 15,1 9,7 17,1 11,6 14,1 14 8 25 13 S 1022,1 25 60 0,0
31.10.2020 12:00:00 13,6 9,2 16,5 11,5 14,1 14 8 27 15 S 1022,9 23 60 0,0
31.10.2020 11:00:00 12,4 8,9 13,7 11,5 14,1 14 7 21 12 S 1023,9 23 60 0,0
31.10.2020 10:00:00 9,6 7,5 12,0 11,6 14,1 10 6 16 9 SSW 1024,9 10 60 0,0
31.10.2020 09:00:00 8,2 7,9 5,3 11,7 14,1 6 4 9 5 S 1025,4 10 60 0,0
31.10.2020 08:00:00 5,1 4,8 3,9 11,9 14,1 4 2 9 5 SW 1025,8 0,7 19 0,0
31.10.2020 07:00:00 4,6 4,2 2,9 12,0 14,1 3 2 9 5 S 1025,6 0,1 0 0,0
31.10.2020 06:00:00 5,3 4,9 3,3 12,2 14,1 2 1 8 4 W 1025,7 0,4 0 0,0
31.10.2020 05:00:00 6,8 6,4 4,2 12,3 14,1 3 2 6 4 WSW 1026,2 0,3 0 0,0
31.10.2020 04:00:00 6,6 6,0 4,4 12,5 14,1 5 3 7 4 SSE 1026,1 0,3 0 0,0
31.10.2020 03:00:00 7,4 6,2 5,3 12,6 14,1 3 2 9 5 SE 1026,3 0,8 0 0,0
31.10.2020 02:00:00 10,3 8,6 9,2 12,6 14,1 5 3 8 4 SW 1026,8 30 0 0,0
31.10.2020 01:00:00 10,6 8,7 10,1 12,7 14,1 3 2 8 4 SSW 1027,0 16 0 0,0
31.10.2020 00:00:00 10,4 8,8 7,1 12,8 14,1 5 3 9 5 S 1027,3 35 0 0,0
30.10.2020 23:00:00 9,6 7,4 7,1 12,8 14,1 5 3 8 4 S 1027,2 45 0 0,0
30.10.2020 22:00:00 12,6 9,1 12,2 12,8 14,1 6 4 10 6 SW 1027,1 60 0 0,0
30.10.2020 21:00:00 12,8 9,1 12,2 12,9 14,1 6 4 14 7 SW 1027,2 60 0 0,0
30.10.2020 20:00:00 13,7 8,7 12,6 12,9 14,1 11 6 19 10 SW 1027,1 60 0 0,0
30.10.2020 19:00:00 13,7 8,9 13,2 12,8 14,1 11 6 17 9 SW 1026,9 60 0 0,0
30.10.2020 18:00:00 14,1 9,5 13,7 12,8 14,1 9 5 17 9 WSW 1026,5 60 0 0,0
30.10.2020 17:00:00 14,8 8,9 14,5 12,7 14,1 8 5 23 12 SSW 1025,9 18 0 0,0
30.10.2020 16:00:00 15,5 8,0 15,7 12,6 14,1 20 11 30 16 W 1025,6 60 0 0,0
30.10.2020 15:00:00 16,3 7,8 16,6 12,5 14,1 19 10 30 16 WSW 1025,4 52 15 0,0
30.10.2020 14:00:00 16,1 8,3 16,3 12,4 14,1 19 10 27 14 WSW 1025,3 18 0 0,0
30.10.2020 13:00:00 15,6 9,3 16,1 12,3 14,1 12 7 23 13 SW 1025,5 60 0 0,0
30.10.2020 12:00:00 15,0 10,2 15,2 12,2 14,1 15 8 24 13 SSW 1025,6 60 0 0,0
30.10.2020 11:00:00 15,2 10,6 14,6 12,1 14,1 10 6 29 16 SSW 1025,5 60 4 0,0
30.10.2020 10:00:00 14,3 10,7 14,2 12,1 14,1 18 10 29 16 SSW 1025,3 57 0 0,0
30.10.2020 09:00:00 14,2 10,4 13,5 12,1 14,1 13 7 26 14 SSW 1024,8 52 0 0,0
30.10.2020 08:00:00 13,7 10,3 12,6 12,1 14,2 14 8 25 13 S 1024,6 60 0 0,0
30.10.2020 07:00:00 12,8 10,5 11,9 12,1 14,1 6 3 19 10 SSW 1024,1 60 0 0,0
30.10.2020 06:00:00 12,5 10,2 12,1 12,2 14,2 10 5 24 13 SSW 1023,8 60 0 0,0
30.10.2020 05:00:00 12,6 10,5 11,7 12,1 14,2 10 5 21 11 SSW 1023,6 60 0 0,0
30.10.2020 04:00:00 12,5 10,2 12,2 12,1 14,2 9 5 31 17 S 1023,2 60 0 0,0
30.10.2020 03:00:00 12,8 10,3 12,2 12,1 14,2 18 10 32 18 S 1022,9 60 0 0,0
30.10.2020 02:00:00 12,5 10,0 12,2 12,1 14,1 11 6 26 14 S 1023,2 60 0 0,0
30.10.2020 01:00:00 12,8 10,2 11,7 12,2 14,2 14 8 26 14 S 1023,5 60 0 0,0
30.10.2020 00:00:00 12,5 10,2 11,3 12,2 14,2 12 7 26 14 S 1023,4 60 0 0,0
29.10.2020 23:00:00 12,2 10,1 11,0 12,2 14,2 15 8 27 14 S 1023,6 60 0 0,0
29.10.2020 22:00:00 11,8 10,0 10,7 12,2 14,2 9 5 21 12 S 1023,7 20 0 0,0
29.10.2020 21:00:00 11,6 9,7 10,7 12,2 14,2 14 7 25 14 S 1023,3 44 0 0,0
29.10.2020 20:00:00 11,9 9,5 10,8 12,3 14,2 12 7 22 12 S 1023,2 28 0 0,0
29.10.2020 19:00:00 12,0 8,8 11,0 12,3 14,2 13 7 21 11 S 1023,2 59 0 0,0
29.10.2020 18:00:00 12,2 8,7 11,7 12,3 14,2 11 6 19 10 S 1022,9 60 0 0,0
29.10.2020 17:00:00 12,6 8,9 12,3 12,2 14,2 11 6 16 9 SW 1022,9 28 0 0,0
29.10.2020 16:00:00 13,3 8,8 12,2 12,0 14,2 11 6 28 15 SW 1022,5 45 0 0,0
29.10.2020 15:00:00 14,3 7,1 14,7 12,0 14,2 15 8 27 14 SW 1022,0 50 0 0,0
29.10.2020 14:00:00 14,3 8,3 14,7 11,9 14,2 11 6 23 12 WSW 1022,0 56 0 0,0
29.10.2020 13:00:00 13,6 8,8 13,7 11,8 14,2 14 7 28 15 W 1022,0 60 0 0,0
29.10.2020 12:00:00 13,2 9,1 13,6 11,7 14,2 17 9 29 16 SSW 1022,0 54 0 0,0
29.10.2020 11:00:00 13,4 8,7 12,3 11,7 14,2 15 8 25 14 SSW 1021,9 53 0 0,0
29.10.2020 10:00:00 12,3 7,8 11,6 11,8 14,2 14 7 31 17 S 1021,5 60 0 0,0
29.10.2020 09:00:00 11,6 7,7 10,7 11,7 14,2 18 10 29 15 SSW 1020,6 60 0 0,0
29.10.2020 08:00:00 11,2 7,7 9,4 11,7 14,2 17 9 31 17 SW 1019,5 60 0 0,0
29.10.2020 07:00:00 11,9 8,4 10,3 11,8 14,3 11 6 44 24 WSW 1018,5 60 0 0,0
29.10.2020 06:00:00 11,4 9,0 10,3 11,8 14,2 18 10 31 17 SSW 1017,3 20 0 0,2
29.10.2020 05:00:00 11,5 8,7 10,6 11,8 14,2 17 9 40 21 SSW 1016,7 60 0 0,0
29.10.2020 04:00:00 12,8 8,3 10,5 11,9 14,3 17 9 34 18 WSW 1016,2 35 0 0,2
29.10.2020 03:00:00 13,2 8,1 10,6 11,9 14,3 24 13 47 26 WSW 1016,1 11 0 0,2
29.10.2020 02:00:00 14,2 7,7 11,3 11,9 14,3 29 16 45 24 WSW 1016,0 60 0 0,0
29.10.2020 01:00:00 12,7 9,3 10,7 11,9 14,3 21 11 36 20 SSW 1015,8 60 0 0,2
29.10.2020 00:00:00 12,8 8,7 10,5 12,0 14,3 20 11 38 20 SSW 1015,9 14 0 0,2
28.10.2020 23:00:00 13,3 7,3 11,5 12,0 14,3 21 12 40 21 SSW 1015,7 60 0 0,0
28.10.2020 22:00:00 12,7 7,8 11,2 12,1 14,3 15 8 31 17 S 1015,6 59 0 0,0
28.10.2020 21:00:00 12,4 8,3 11,5 12,1 14,3 13 7 27 15 S 1015,5 60 0 0,0
28.10.2020 20:00:00 12,4 8,1 11,6 12,2 14,3 13 7 23 13 S 1015,5 60 0 0,0
28.10.2020 19:00:00 12,8 6,8 11,5 12,2 14,3 13 7 30 16 S 1015,5 60 0 0,0
28.10.2020 18:00:00 13,6 6,9 12,8 12,1 14,3 18 10 34 18 SSW 1015,4 60 0 0,0
28.10.2020 17:00:00 13,8 7,3 13,2 12,0 14,3 22 12 40 22 SSW 1015,2 58 30 0,0
28.10.2020 16:00:00 14,5 7,3 14,4 11,9 14,4 19 10 37 20 SW 1015,2 60 39 0,0
28.10.2020 15:00:00 14,4 7,2 14,4 11,8 14,3 23 13 43 23 SW 1015,1 43 0 0,0
28.10.2020 14:00:00 14,3 7,6 14,7 11,6 14,4 24 13 47 26 SW 1014,9 43 0 0,0
28.10.2020 13:00:00 14,9 8,6 14,6 11,5 14,4 29 16 49 26 SW 1015,2 50 14 0,0
28.10.2020 12:00:00 14,2 11,5 13,2 11,4 14,4 17 9 34 18 SW 1015,3 43 3 0,2
28.10.2020 11:00:00 13,4 10,6 13,9 11,2 14,4 16 9 29 16 S 1015,0 54 15 0,0
28.10.2020 10:00:00 13,3 11,2 12,0 11,2 14,4 16 9 34 18 S 1014,6 45 7 0,0
28.10.2020 09:00:00 12,4 10,5 10,5 11,2 14,4 17 9 30 16 SSW 1014,0 49 6 0,0
28.10.2020 08:00:00 11,0 9,3 10,1 11,2 14,4 18 10 29 16 S 1013,1 46 0 0,0
28.10.2020 07:00:00 11,0 8,9 9,3 11,2 14,4 18 10 34 19 S 1011,7 20 0 0,0
28.10.2020 06:00:00 10,6 8,5 9,4 11,3 14,4 20 11 35 19 S 1011,2 60 0 0,2
28.10.2020 05:00:00 11,2 7,9 9,6 11,3 14,4 23 12 39 21 S 1011,0 58 0 0,0
28.10.2020 04:00:00 11,2 7,7 10,0 11,3 14,4 24 13 42 23 SSW 1010,9 33 0 0,0
28.10.2020 03:00:00 11,3 6,6 10,9 11,3 14,4 18 10 40 22 S 1011,0 60 0 0,0
28.10.2020 02:00:00 11,5 6,2 10,3 11,3 14,5 25 13 45 24 S 1010,9 60 0 0,0
28.10.2020 01:00:00 10,8 6,3 10,2 11,4 14,5 18 10 35 19 S 1011,0 60 0 0,0
28.10.2020 00:00:00 10,8 5,3 10,1 11,4 14,5 20 11 35 19 S 1011,3 55 0 0,0
27.10.2020 23:00:00 10,4 5,6 9,1 11,5 14,5 18 10 35 19 SSW 1011,4 33 0 0,0
27.10.2020 22:00:00 9,5 5,7 8,8 11,6 14,5 6 3 22 12 S 1011,4 50 0 0,0
27.10.2020 21:00:00 9,2 5,6 6,8 11,7 14,5 11 6 18 10 S 1011,5 60 0 0,0
27.10.2020 20:00:00 8,2 5,1 6,8 11,7 14,5 6 4 21 11 S 1011,5 54 0 0,0
27.10.2020 19:00:00 9,0 5,4 7,8 11,8 14,5 10 5 23 13 S 1011,8 60 0 0,0
27.10.2020 18:00:00 9,8 5,6 8,5 11,8 14,5 14 8 21 11 S 1011,5 60 0 0,0
27.10.2020 17:00:00 10,9 5,8 9,9 11,7 14,5 10 6 26 14 S 1011,5 60 28 0,0
27.10.2020 16:00:00 12,4 6,2 12,6 11,5 14,5 15 8 31 17 S 1011,5 48 40 0,0
27.10.2020 15:00:00 12,1 6,2 12,6 11,3 14,5 20 11 33 18 S 1011,8 54 0 0,0
27.10.2020 14:00:00 12,6 6,8 13,4 11,1 14,5 16 9 27 15 SSW 1011,9 41 15 0,0
27.10.2020 13:00:00 12,3 6,6 12,7 10,9 14,5 16 9 28 15 S 1012,2 49 10 0,0
27.10.2020 12:00:00 11,8 6,5 12,9 10,8 14,5 16 9 33 18 S 1012,5 56 29 0,0
27.10.2020 11:00:00 12,8 8,3 12,2 10,7 14,5 16 8 27 15 S 1012,3 29 26 0,0
27.10.2020 10:00:00 10,8 7,7 8,9 10,7 14,5 14 7 25 13 SSW 1012,0 30 28 0,0
27.10.2020 09:00:00 8,3 6,9 7,9 10,7 14,5 14 8 29 16 S 1011,9 48 8 0,0
27.10.2020 08:00:00 8,2 7,0 6,4 10,8 14,6 13 7 27 14 S 1011,8 35 27 0,0
27.10.2020 07:00:00 7,0 6,3 5,1 10,9 14,6 17 9 29 15 S 1011,4 54 0 0,0
27.10.2020 06:00:00 5,8 5,4 2,3 11,1 14,6 9 5 21 11 SW 1010,9 35 0 0,0
27.10.2020 05:00:00 4,4 3,8 2,3 11,2 14,6 7 4 14 8 SSE 1010,3 12 0 0,0
27.10.2020 04:00:00 5,5 4,9 3,1 11,3 14,6 2 1 15 8 NNW 1010,3 8 0 0,0
27.10.2020 03:00:00 6,3 5,9 4,7 11,5 14,6 9 5 16 9 S 1010,5 14 0 0,0
27.10.2020 02:00:00 6,0 5,3 4,2 11,6 14,5 9 5 15 8 SSE 1010,1 15 0 0,2
27.10.2020 01:00:00 6,7 6,0 5,4 11,7 14,6 5 3 16 9 S 1010,2 9 0 0,0
27.10.2020 00:00:00 6,6 5,5 5,3 11,8 14,6 5 3 22 12 E 1010,5 20 0 0,0
26.10.2020 23:00:00 7,1 5,7 5,9 12,0 14,6 12 7 26 14 SSW 1010,2 47 0 0,0
26.10.2020 22:00:00 6,6 5,7 4,3 12,1 14,6 10 5 21 11 SE 1010,3 30 0 0,0
26.10.2020 21:00:00 7,8 6,3 6,6 12,2 14,6 10 6 29 15 SSW 1009,8 46 0 0,0
26.10.2020 20:00:00 8,3 6,9 7,1 12,3 14,6 14 8 27 15 S 1009,3 56 0 0,0
26.10.2020 19:00:00 8,9 7,2 8,3 12,4 14,6 17 9 29 16 S 1009,4 58 0 0,0
26.10.2020 18:00:00 9,1 7,5 8,6 12,4 14,6 12 7 23 12 S 1008,4 54 0 0,0
26.10.2020 17:00:00 9,1 7,5 8,9 12,5 14,6 13 7 32 18 S 1008,1 59 8 0,0
26.10.2020 16:00:00 9,4 7,7 9,5 12,5 14,6 21 11 33 18 S 1007,9 59 0 0,0
26.10.2020 15:00:00 9,5 7,4 9,8 12,5 14,5 20 11 32 17 S 1008,3 57 0 0,0
26.10.2020 14:00:00 9,6 7,5 10,3 12,5 14,6 18 10 34 18 S 1008,1 60 0 0,0
26.10.2020 13:00:00 9,5 7,3 9,9 12,5 14,6 17 9 33 18 S 1007,8 58 0 0,0
26.10.2020 12:00:00 9,4 7,3 9,9 12,5 14,6 18 10 32 17 S 1007,7 59 0 0,0
26.10.2020 11:00:00 9,3 7,6 9,5 12,6 14,6 16 9 34 19 S 1007,5 60 0 0,0
26.10.2020 10:00:00 9,5 8,1 9,6 12,7 14,6 16 9 36 19 S 1007,4 60 0 0,0
26.10.2020 09:00:00 9,8 8,2 9,4 12,7 14,6 22 12 39 21 SSW 1007,5 60 0 0,0
26.10.2020 08:00:00 9,7 8,6 9,0 12,8 14,6 14 7 23 13 S 1006,5 60 0 0,4
26.10.2020 07:00:00 9,9 8,7 9,2 12,9 14,6 13 7 25 14 S 1006,0 20 0 1,0
26.10.2020 06:00:00 10,3 9,4 9,6 12,9 14,6 15 8 24 13 SSW 1005,6 15 0 1,2
26.10.2020 05:00:00 10,9 10,6 10,3 13,0 14,6 10 5 16 9 S 1004,9 14 0 1,3
26.10.2020 04:00:00 10,9 10,6 10,4 13,1 14,6 7 4 17 9 SSE 1004,9 8 0 3,6
26.10.2020 03:00:00 10,8 10,5 10,5 13,2 14,6 3 1 10 5 W 1005,6 3,2 0 2,8
26.10.2020 02:00:00 10,6 10,3 10,3 13,3 14,6 4 2 8 4 S 1005,4 3,8 0 1,4
26.10.2020 01:00:00 10,8 10,3 10,5 13,3 14,6 4 2 10 5 N 1005,2 4,5 0 3,9
26.10.2020 00:00:00 10,9 10,4 10,6 13,4 14,6 5 3 16 9 SSW 1005,7 3,0 0 2,2
25.10.2020 23:00:00 11,0 10,5 10,7 13,5 14,6 9 5 17 9 E 1005,8 10 0 1,0

tt = Température de l'air
td = dewpoint
tt 5cm = Température de l'air 5cm
tt -20cm = Température de l'air -20cm
tt -100cm = Température de l'air -100cm
ff = Vitesse du vent
fx = gusts
dd = Direction du vent
ppp = reduced air pressure
vv = visibility
sd = Ensoleillement
rr = Quantités de précipitations

stations d'obs. à proximité